Dewpoint
57 57 57 57 58 58 58 58 58 59 59 59 59 60 60 60 59 53 30 41 46 71 65 48 47 38 44 37 39 41 43 39 35 41 41 45 44 38 41 42 43 45 50 57 61
56 56 56 57 57 58 58 58 58 58 58 58 59 59 60 60 48 38 53 69 67 67 33 25 21 24 28 29 32 39 43 39 38 28 33 45 45 46 50 46 49 50 55 59 61
56 56 56 56 56 57 57 57 58 58 58 58 59 59 60 58 44 30 66 68 65 60 30 19 19 21 26 30 28 43 41 39 38 26 29 37 45 47 46 45 48 51 56 59 60
55 55 55 55 56 56 57 57 57 57 57 58 59 59 60 50 35 33 68 67 67 40 20 15 21 21 26 28 27 32 37 32 26 26 27 29 36 44 41 43 46 53 56 57 59
55 55 55 55 55 56 56 57 57 57 57 58 59 60 41 37 33 36 69 61 30 25 27 24 24 23 25 26 27 28 33 29 26 25 25 28 29 33 43 44 44 53 55 56 57
54 55 55 55 56 56 56 56 56 56 57 58 59 60 44 26 32 29 25 23 25 24 21 21 21 23 25 26 28 29 30 28 24 25 25 24 26 30 35 43 44 52 53 55 56
54 55 55 55 55 56 56 56 56 56 57 58 60 49 29 19 16 31 25 17 19 20 19 20 21 22 25 26 27 29 27 26 26 24 21 25 31 32 41 47 46 50 52 54 57
54 54 55 55 55 55 55 55 55 56 58 60 62 45 26 18 16 17 28 23 17 20 20 23 25 22 22 25 27 26 26 28 35 36 18 18 32 36 40 49 48 49 51 53 57
54 54 54 55 55 55 54 54 55 56 59 60 52 42 26 36 8 4 18 20 18 19 21 19 20 18 21 22 23 25 24 31 30 32 15 15 32 36 38 43 39 47 51 52 56
54 54 54 54 54 54 53 53 56 54 52 47 41 30 23 8 7 15 17 20 20 19 18 19 14 11 17 19 20 27 34 34 37 31 15 13 19 28 31 32 35 44 52 53 55
53 53 53 54 54 53 47 34 33 40 31 23 22 16 10 9 17 15 15 18 17 18 18 16 9 9 14 19 20 21 35 38 39 37 16 16 20 23 29 27 33 40 54 55 55
53 53 53 53 53 52 48 37 26 24 22 19 19 12 13 14 13 12 13 17 16 13 14 13 12 11 10 13 16 20 21 28 30 23 18 17 18 21 26 29 28 29 48 53 65
53 53 53 53 52 45 31 26 25 23 19 11 5 6 5 7 7 7 14 16 14 12 10 11 9 8 6 10 14 19 20 18 18 20 19 19 18 23 28 29 36 40 42 53 67
53 53 52 52 44 30 18 30 23 25 17 9 3 6 5 3 4 6 12 15 14 12 12 8 9 8 9 7 8 13 13 16 15 17 13 21 18 31 29 34 39 44 44 53 66
52 52 52 51 38 25 31 25 23 25 12 7 4 6 2 6 5 5 8 15 15 14 12 11 7 5 8 7 6 14 12 16 15 14 16 15 14 35 34 40 41 47 51 59 64
52 52 51 43 45 30 20 22 24 18 12 6 6 6 5 4 3 8 6 15 16 14 15 11 10 6 4 5 7 10 10 17 17 14 15 20 16 32 32 39 46 53 57 60 62
51 51 49 41 28 25 21 23 18 14 10 7 3 5 3 3 3 7 13 15 13 18 19 17 11 10 11 5 7 12 14 17 17 14 13 21 15 32 35 35 45 55 57 60 62
50 50 46 35 24 26 25 21 21 12 9 7 4 3 2 2 6 4 13 14 14 13 13 15 12 7 10 10 14 18 15 17 23 18 26 32 29 30 38 39 50 55 58 61 62
49 40 36 35 30 26 24 19 18 17 10 9 7 6 8 5 3 7 9 10 12 15 20 14 13 11 8 10 11 18 17 12 17 17 17 29 33 31 34 40 48 55 59 60 61
45 32 30 28 28 25 22 24 15 13 10 11 10 9 9 7 6 7 10 9 9 12 16 17 18 15 9 10 13 15 19 18 15 26 23 17 30 35 38 42 49 52 56 59 62
40 32 32 26 26 22 19 18 16 14 14 13 13 13 11 10 8 9 9 8 9 10 15 14 19 19 14 15 16 17 18 24 17 20 26 27 37 43 48 47 45 49 56 59 60
36 28 30 22 16 17 19 22 28 14 15 13 13 13 16 13 15 16 11 10 8 9 11 16 15 19 17 15 18 17 19 20 19 32 25 27 29 35 43 40 45 51 56 56 53
39 28 29 19 10 9 16 17 20 18 16 15 10 11 14 17 21 19 18 13 10 9 19 19 18 16 20 18 21 19 17 21 28 35 34 31 29 39 43 44 45 51 54 56 57
42 26 23 21 16 20 22 19 20 19 18 15 14 11 12 14 21 23 21 16 17 14 49 35 27 30 13 23 19 25 19 20 25 28 27 28 41 47 48 47 49 54 58 58 58
38 32 32 17 12 16 23 21 18 18 17 17 16 12 13 17 18 18 19 20 20 40 25 28 36 25 21 18 18 19 22 21 19 22 22 32 42 45 49 46 49 56 57 57 57
38 34 35 29 31 22 25 22 21 19 20 19 19 14 14 19 21 20 18 23 26 25 26 25 34 30 24 20 17 17 24 39 28 19 19 23 42 48 50 46 44 57 58 57 58
33 33 33 34 26 26 23 24 21 22 22 22 22 20 19 18 17 16 22 28 35 38 42 38 33 37 27 21 20 21 19 20 20 23 21 27 41 47 48 50 51 59 55 55 55
Lifted_Index
12 12 12 12 12 12 12 12 12 13 13 13 12 12 11 10 9 8 7 6 6 5 4 3 3 3 2 2 1 0 -0 -0 -0 -0 -1 -1 -0 -1 -0 -1 -1 -1 -2 -3 -3
12 12 12 12 12 12 12 12 12 12 12 12 12 12 11 10 8 8 7 7 6 5 4 4 4 4 3 2 1 -0 -0 -0 -0 -0 -0 -1 -1 -1 -0 -0 -1 -2 -2 -3 -4
13 13 12 12 12 12 12 12 12 12 12 11 11 11 10 9 7 7 7 8 7 6 5 5 5 4 3 2 0 -0 -0 -0 -0 -0 -0 -1 -1 -1 -0 -0 -1 -2 -3 -4 -4
13 13 13 12 12 12 12 11 11 11 11 11 10 10 9 7 6 6 8 8 8 7 5 5 4 4 3 1 0 -0 -0 -1 -1 -0 0 -0 -1 -1 -1 -0 -1 -2 -3 -3 -4
13 13 12 12 12 11 11 11 11 11 10 10 10 9 8 6 6 7 8 9 8 7 6 5 4 3 2 1 -0 -0 -0 -1 -1 -0 0 0 -0 -1 -1 -1 -2 -2 -3 -3 -3
13 12 12 12 11 11 11 10 10 10 10 10 9 9 7 6 6 7 8 9 8 7 6 5 4 3 2 1 -0 -0 -0 -1 -1 -0 0 0 -0 -0 -1 -1 -2 -2 -2 -3 -3
12 12 12 11 11 10 10 10 10 9 9 9 9 8 7 6 7 7 7 8 7 7 6 5 4 4 3 1 0 0 -0 -0 -0 -1 -0 -0 -0 0 0 -1 -2 -2 -2 -3 -3
12 12 12 11 11 10 10 9 9 9 9 8 7 7 6 6 7 7 7 7 6 6 6 5 5 4 3 2 1 0 -0 0 0 -0 -1 -0 -0 0 1 -0 -2 -2 -2 -3 -4
12 12 12 11 10 10 9 9 8 8 8 7 6 6 6 6 6 6 6 6 6 6 5 5 5 4 3 2 1 0 -0 0 0 0 -0 -0 -0 0 0 -0 -1 -2 -2 -3 -4
13 12 12 11 11 10 9 8 7 6 6 6 5 5 5 5 5 6 6 5 5 5 5 5 4 3 3 2 0 -0 -0 0 0 0 -0 -1 -0 -0 -0 -0 -1 -2 -3 -4 -4
13 13 12 11 11 10 8 7 5 5 5 4 4 4 4 5 5 5 5 5 5 5 4 4 3 2 2 1 -0 -1 -0 -0 0 -0 -0 -0 -1 -1 -1 -0 -1 -2 -3 -4 -5
14 13 12 11 11 10 8 6 6 5 4 4 4 3 4 4 4 4 4 4 4 4 3 3 2 1 1 -0 -0 -0 -1 -1 -0 -0 -0 -0 -0 -1 -0 -0 0 -1 -3 -4 -5
14 14 13 12 10 9 8 6 6 6 4 3 3 3 3 4 4 4 4 4 3 3 3 2 1 0 0 0 0 0 -0 -1 -1 -1 -0 -0 -0 -0 -0 0 -0 -0 -2 -4 -6
14 14 13 12 10 8 7 7 7 6 3 2 2 3 3 3 3 3 3 3 3 3 2 2 1 0 0 1 1 0 -0 -1 -1 -1 -1 -1 -0 -0 0 -0 -1 -1 -2 -4 -6
14 14 13 11 9 8 7 7 7 5 2 1 1 2 3 2 2 2 3 3 3 2 2 1 1 0 1 1 1 0 -0 -1 -1 -1 -1 -1 -1 -0 0 -1 -2 -3 -4 -5 -7
15 14 13 11 9 8 8 7 6 3 1 0 1 2 2 2 2 2 2 3 3 2 2 1 1 1 1 1 1 0 -0 -1 -1 -1 -1 -1 -1 -0 0 -0 -2 -4 -5 -6 -6
15 14 13 11 9 8 8 6 4 2 1 0 0 1 1 1 1 1 2 2 2 2 2 1 1 1 1 1 1 0 -0 -1 -1 -1 -1 -1 -1 -0 0 0 -2 -4 -5 -6 -6
13 13 12 11 10 9 7 5 3 2 1 -0 -0 -0 0 0 0 1 1 2 2 2 1 0 0 1 1 1 1 0 -0 -0 -1 -1 -1 -0 -0 -0 0 -0 -2 -4 -5 -6 -6
11 10 9 9 9 9 7 5 3 2 1 -0 -0 -0 -0 -0 -0 -0 0 1 1 1 1 -0 -0 -0 0 0 0 0 -0 -0 -1 -1 -1 -0 0 0 0 -1 -3 -4 -5 -6 -6
10 8 7 8 8 8 6 4 3 2 1 1 0 0 -0 -1 -1 -1 -0 -0 0 0 0 -0 -0 -0 -0 -0 0 -0 -0 -0 -1 -1 -1 -0 -0 0 0 -1 -3 -4 -5 -6 -6
8 6 6 7 7 7 5 4 3 2 2 2 2 1 1 -0 -1 -1 -1 -1 -0 -0 -0 -0 -0 -0 -0 -1 -0 -0 -0 -1 -1 -1 -1 -0 0 1 1 -1 -3 -4 -5 -6 -6
6 5 6 6 6 6 4 3 3 2 2 3 3 2 2 1 -0 -0 -0 -0 -0 -1 -1 -0 0 -0 -0 -1 -0 -0 -0 -0 -0 -1 -1 -0 0 1 0 -1 -3 -4 -5 -5 -5
4 5 6 6 6 5 4 3 2 2 3 3 3 3 2 2 1 0 0 -0 -0 -0 -0 -0 -0 -0 -0 -1 -1 -0 -0 -0 -0 -0 -0 -0 0 0 -0 -1 -3 -5 -5 -5 -5
4 4 5 6 6 5 4 3 3 3 4 4 4 3 3 2 2 2 1 0 0 0 1 0 0 0 -0 -0 -0 -0 -0 -0 -0 -0 -0 -0 -0 -0 -1 -1 -3 -5 -6 -6 -6
3 3 4 5 5 5 4 3 3 3 4 4 4 4 3 3 3 2 1 1 0 1 1 1 1 1 1 0 -0 -1 -0 -0 -0 -0 -0 -0 -0 -0 -0 -1 -2 -5 -6 -6 -6
4 4 4 4 4 4 4 4 3 3 3 4 4 4 3 3 3 2 1 1 0 0 1 1 1 1 1 1 0 -0 -0 -0 -0 -0 -0 -0 -0 0 1 0 -2 -4 -5 -5 -5
5 4 4 4 4 4 4 4 3 3 3 3 3 3 3 3 2 2 1 1 0 -1 -0 1 1 2 2 1 1 0 -0 -0 -1 -1 -0 -0 -0 0 1 0 -2 -4 -5 -5 -5